| time (UTC) | temp F | wind direction | speed MPH | gust MPH | rain 1hr in | rain 24hr in | rain mn in | humidity % | barometer mb |
| 20260906023945 | 71 | 129 | 0.0 | 0.0 | 0.00 | 0.15 | 0.15 | 99 | 1014.9 |
| 20260906023441 | 71 | 128 | 0.0 | 0.0 | 0.00 | 0.15 | 0.15 | 99 | 1014.9 |
| 20260906022941 | 71 | 118 | 0.0 | 0.0 | 0.00 | 0.15 | 0.15 | 99 | 1014.8 |
| 20260906022431 | 72 | 152 | 0.0 | 0.0 | 0.00 | 0.15 | 0.15 | 99 | 1015.0 |
| 20260906021926 | 72 | 139 | 0.0 | 0.0 | 0.00 | 0.15 | 0.15 | 99 | 1014.7 |
| 20260906021420 | 71 | 152 | 0.0 | 0.0 | 0.00 | 0.15 | 0.15 | 99 | 1014.8 |
| 20260906020915 | 71 | 166 | 0.0 | 0.0 | 0.00 | 0.15 | 0.15 | 99 | 1014.7 |
| 20260906020414 | 72 | 156 | 0.0 | 0.0 | 0.00 | 0.15 | 0.15 | 99 | 1014.6 |
| 20260906015909 | 72 | 155 | 0.0 | 0.0 | 0.00 | 0.15 | 0.15 | 98 | 1014.7 |
| 20260906015408 | 72 | 150 | 0.0 | 0.0 | 0.00 | 0.15 | 0.15 | 98 | 1014.7 |
| 20260906014903 | 72 | 150 | 0.0 | 0.0 | 0.00 | 0.15 | 0.15 | 98 | 1014.7 |
| 20260906014402 | 72 | 143 | 0.0 | 0.0 | 0.00 | 0.15 | 0.15 | 98 | 1014.8 |
| 20260906013858 | 72 | 132 | 0.0 | 0.0 | 0.00 | 0.15 | 0.15 | 98 | 1014.5 |
| 20260906013355 | 72 | 131 | 0.0 | 0.0 | 0.00 | 0.15 | 0.15 | 98 | 1014.7 |
| 20260906012850 | 73 | 131 | 0.0 | 0.0 | 0.00 | 0.15 | 0.15 | 98 | 1014.8 |
| 20260906012345 | 73 | 129 | 1.0 | 2.0 | 0.00 | 0.15 | 0.15 | 98 | 1014.7 |
| 20260906011844 | 73 | 110 | 1.0 | 1.0 | 0.00 | 0.15 | 0.15 | 98 | 1014.6 |
| 20260906011339 | 72 | 128 | 0.0 | 0.0 | 0.00 | 0.15 | 0.15 | 98 | 1014.4 |
| 20260906010835 | 72 | 127 | 0.0 | 0.0 | 0.00 | 0.15 | 0.15 | 98 | 1014.5 |
| 20260906010331 | 72 | 128 | 0.0 | 0.0 | 0.00 | 0.15 | 0.15 | 97 | 1014.2 |
| 20260906005827 | 72 | 111 | 2.0 | 2.0 | 0.00 | 0.15 | 0.15 | 97 | 1014.4 |
| 20260906005326 | 73 | 116 | 1.0 | 2.0 | 0.00 | 0.15 | 0.15 | 96 | 1014.2 |
| 20260906004825 | 73 | 123 | 1.0 | 1.0 | 0.00 | 0.15 | 0.15 | 97 | 1014.3 |
| 20260906004324 | 73 | 102 | 2.0 | 2.0 | 0.00 | 0.15 | 0.15 | 96 | 1014.3 |
| 20260906003820 | 73 | 174 | 0.0 | 0.0 | 0.00 | 0.15 | 0.15 | 97 | 1014.2 |
| 20260906003315 | 73 | 175 | 0.0 | 0.0 | 0.00 | 0.15 | 0.15 | 96 | 1014.2 |
| 20260906002811 | 73 | 176 | 0.0 | 0.0 | 0.00 | 0.15 | 0.15 | 96 | 1014.2 |
| 20260906002310 | 74 | 173 | 0.0 | 0.0 | 0.00 | 0.15 | 0.15 | 95 | 1014.2 |
| 20260906001806 | 74 | 176 | 0.0 | 0.0 | 0.00 | 0.15 | 0.15 | 95 | 1014.2 |
| 20260906001301 | 74 | 181 | 1.0 | 1.0 | 0.00 | 0.15 | 0.15 | 94 | 1014.2 |
| 20260906000755 | 75 | 159 | 1.0 | 1.0 | 0.00 | 0.15 | 0.15 | 93 | 1014.1 |
| 20260906000250 | 75 | 146 | 0.0 | 1.0 | 0.00 | 0.15 | 0.15 | 94 | 1014.0 |
| 20260905235745 | 75 | 187 | 1.0 | 2.0 | 0.00 | 0.15 | 0.15 | 93 | 1013.8 |
| 20260905235244 | 76 | 167 | 1.0 | 1.0 | 0.00 | 0.15 | 0.15 | 91 | 1013.8 |
| 20260905234740 | 77 | 159 | 0.0 | 2.0 | 0.00 | 0.15 | 0.15 | 89 | 1013.6 |
| 20260905234235 | 77 | 155 | 0.0 | 0.0 | 0.00 | 0.15 | 0.15 | 85 | 1013.7 |
| 20260905233731 | 78 | 145 | 0.0 | 1.0 | 0.00 | 0.15 | 0.15 | 85 | 1013.9 |
| 20260905233230 | 78 | 157 | 0.0 | 2.0 | 0.00 | 0.15 | 0.15 | 84 | 1013.8 |
| 20260905232724 | 78 | 341 | 2.0 | 2.0 | 0.00 | 0.15 | 0.15 | 86 | 1013.5 |
| 20260905232220 | 80 | 162 | 0.0 | 1.0 | 0.00 | 0.15 | 0.15 | 81 | 1013.4 |
| 20260905231716 | 80 | 129 | 0.0 | 0.0 | 0.00 | 0.15 | 0.15 | 81 | 1013.7 |
| 20260905231211 | 80 | 133 | 1.0 | 1.0 | 0.00 | 0.15 | 0.15 | 81 | 1013.5 |
| 20260905230708 | 81 | 134 | 0.0 | 0.0 | 0.00 | 0.15 | 0.15 | 80 | 1013.6 |
| 20260905230205 | 81 | 110 | 0.0 | 0.0 | 0.00 | 0.15 | 0.15 | 79 | 1013.6 |
| 20260905225705 | 81 | 111 | 0.0 | 0.0 | 0.00 | 0.15 | 0.15 | 79 | 1013.7 |
| 20260905225200 | 82 | 132 | 0.0 | 0.0 | 0.00 | 0.15 | 0.15 | 79 | 1013.5 |
| 20260905224659 | 81 | 132 | 0.0 | 0.0 | 0.00 | 0.15 | 0.15 | 80 | 1013.5 |
| 20260905224154 | 81 | 93 | 0.0 | 0.0 | 0.00 | 0.15 | 0.15 | 81 | 1013.5 |
| 20260905223651 | 82 | 122 | 0.0 | 0.0 | 0.00 | 0.15 | 0.15 | 80 | 1013.6 |
| 20260905223147 | 82 | 144 | 0.0 | 0.0 | 0.00 | 0.15 | 0.15 | 76 | 1013.4 |
| 20260905222643 | 82 | 94 | 1.0 | 2.0 | 0.00 | 0.15 | 0.15 | 76 | 1013.5 |
| 20260905222142 | 82 | 155 | 0.0 | 2.0 | 0.00 | 0.15 | 0.15 | 79 | 1013.4 |
| 20260905221638 | 82 | 27 | 1.0 | 1.0 | 0.00 | 0.15 | 0.15 | 78 | 1013.4 |
| 20260905221135 | 81 | 88 | 2.0 | 3.0 | 0.00 | 0.15 | 0.15 | 81 | 1013.6 |
| 20260905220630 | 80 | 306 | 3.0 | 3.0 | 0.00 | 0.15 | 0.15 | 80 | 1013.5 |
| 20260905220126 | 81 | 338 | 3.0 | 3.0 | 0.00 | 0.15 | 0.15 | 80 | 1013.4 |
| 20260905215625 | 80 | 286 | 2.0 | 3.0 | 0.00 | 0.15 | 0.15 | 83 | 1013.7 |
| 20260905215121 | 79 | 270 | 3.0 | 3.0 | 0.00 | 0.15 | 0.15 | 83 | 1013.6 |
| 20260905214617 | 79 | 260 | 4.0 | 4.0 | 0.00 | 0.15 | 0.15 | 83 | 1013.7 |
| 20260905214112 | 81 | 290 | 3.0 | 4.0 | 0.00 | 0.15 | 0.15 | 80 | 1013.8 |
| 20260905213607 | 80 | 148 | 0.0 | 1.0 | 0.00 | 0.15 | 0.15 | 83 | 1013.9 |
| 20260905213103 | 78 | 264 | 2.0 | 4.0 | 0.00 | 0.15 | 0.15 | 86 | 1014.0 |
| 20260905212602 | 78 | 242 | 3.0 | 4.0 | 0.00 | 0.15 | 0.15 | 87 | 1014.1 |
| 20260905212102 | 78 | 277 | 4.0 | 4.0 | 0.00 | 0.15 | 0.15 | 86 | 1014.3 |
| 20260905211557 | 77 | 259 | 2.0 | 6.0 | 0.00 | 0.15 | 0.15 | 86 | 1014.3 |
| 20260905211053 | 77 | 223 | 2.0 | 4.0 | 0.00 | 0.15 | 0.15 | 87 | 1014.3 |
| 20260905210549 | 76 | 279 | 4.0 | 4.0 | 0.00 | 0.15 | 0.15 | 87 | 1014.6 |
| 20260905210044 | 76 | 207 | 3.0 | 3.0 | 0.00 | 0.15 | 0.15 | 88 | 1014.5 |
| 20260905205543 | 76 | 177 | 0.0 | 0.0 | 0.00 | 0.15 | 0.15 | 87 | 1014.5 |
| 20260905205042 | 76 | 199 | 2.0 | 2.0 | 0.00 | 0.15 | 0.15 | 89 | 1014.4 |
| 20260905204537 | 75 | 184 | 0.0 | 1.0 | 0.00 | 0.15 | 0.15 | 86 | 1014.7 |
| 20260905204032 | 75 | 158 | 0.0 | 1.0 | 0.00 | 0.15 | 0.15 | 88 | 1014.8 |
| 20260905203532 | 75 | 103 | 1.0 | 1.0 | 0.00 | 0.15 | 0.15 | 91 | 1015.0 |
| 20260905203027 | 74 | 334 | 2.0 | 3.0 | 0.00 | 0.15 | 0.15 | 92 | 1015.0 |
| 20260905202522 | 73 | 291 | 4.0 | 4.0 | 0.00 | 0.15 | 0.15 | 92 | 1015.0 |
| 20260905202018 | 73 | 244 | 1.0 | 3.0 | 0.00 | 0.15 | 0.15 | 94 | 1015.1 |
| 20260905201514 | 73 | 337 | 1.0 | 2.0 | 0.00 | 0.15 | 0.15 | 94 | 1014.9 |
| 20260905201013 | 73 | 126 | 0.0 | 2.0 | 0.00 | 0.15 | 0.15 | 95 | 1014.9 |
| 20260905200509 | 72 | 122 | 0.0 | 0.0 | 0.00 | 0.15 | 0.15 | 95 | 1015.0 |
| 20260905200008 | 72 | 134 | 0.0 | 0.0 | 0.00 | 0.15 | 0.15 | 96 | 1014.8 |
| 20260905195502 | 71 | 128 | 0.0 | 0.0 | 0.00 | 0.15 | 0.15 | 97 | 1014.9 |
| 20260905194958 | 71 | 126 | 0.0 | 0.0 | 0.00 | 0.15 | 0.15 | 97 | 1014.7 |
| 20260905194458 | 70 | 133 | 0.0 | 0.0 | 0.00 | 0.15 | 0.15 | 97 | 1014.6 |
| 20260905193957 | 70 | 152 | 0.0 | 0.0 | 0.00 | 0.15 | 0.15 | 97 | 1014.7 |
| 20260905193452 | 70 | 123 | 0.0 | 0.0 | 0.00 | 0.15 | 0.15 | 97 | 1014.6 |
| 20260905192947 | 70 | 106 | 1.0 | 1.0 | 0.00 | 0.15 | 0.15 | 96 | 1014.7 |
| 20260905192442 | 70 | 120 | 0.0 | 0.0 | 0.00 | 0.15 | 0.15 | 95 | 1014.9 |
| 20260905191937 | 70 | 120 | 0.0 | 2.0 | 0.00 | 0.15 | 0.15 | 94 | 1014.8 |
| 20260905191432 | 70 | 176 | 1.0 | 2.0 | 0.07 | 0.15 | 0.15 | 93 | 1014.7 |
| 20260905190931 | 71 | 220 | 2.0 | 4.0 | 0.07 | 0.15 | 0.15 | 91 | 1014.7 |
| 20260905190429 | 71 | 228 | 4.0 | 7.0 | 0.00 | 0.14 | 0.14 | 91 | 1015.1 |
| 20260905185927 | 70 | 246 | 5.0 | 7.0 | 0.05 | 0.14 | 0.14 | 90 | 1015.6 |
| 20260905185423 | 70 | 301 | 6.0 | 7.0 | 0.31 | 0.14 | 0.14 | 92 | 1015.9 |
| 20260905184921 | 71 | 150 | 0.0 | 2.0 | 0.71 | 0.12 | 0.12 | 90 | 1015.8 |
| 20260905184416 | 74 | 82 | 3.0 | 4.0 | 0.52 | 0.09 | 0.09 | 83 | 1016.0 |
| 20260905183915 | 82 | 84 | 4.0 | 7.0 | 0.00 | 0.00 | 0.00 | 66 | 1015.7 |
| 20260905183410 | 84 | 31 | 4.0 | 10.0 | 0.00 | 0.00 | 0.00 | 61 | 1015.6 |
| 20260905182905 | 89 | 49 | 1.0 | 3.0 | 0.00 | 0.00 | 0.00 | 69 | 1015.5 |
| 20260905182405 | 90 | 124 | 0.0 | 0.0 | 0.00 | 0.00 | 0.00 | 63 | 1014.9 |
| 20260905181901 | 91 | 131 | 0.0 | 0.0 | 0.00 | 0.00 | 0.00 | 61 | 1014.0 |
| 20260905181400 | 91 | 116 | 0.0 | 0.0 | 0.00 | 0.00 | 0.00 | 61 | 1013.9 |
| 20260905180859 | 92 | 136 | 0.0 | 2.0 | 0.00 | 0.00 | 0.00 | 58 | 1014.1 |
| 20260905180354 | 92 | 98 | 1.0 | 1.0 | 0.00 | 0.00 | 0.00 | 58 | 1014.2 |
| 20260905175849 | 94 | 129 | 0.0 | 1.0 | 0.00 | 0.00 | 0.00 | 56 | 1014.6 |
| 20260905175343 | 94 | 121 | 1.0 | 1.0 | 0.00 | 0.00 | 0.00 | 54 | 1014.6 |
| 20260905174838 | 95 | 56 | 0.0 | 2.0 | 0.00 | 0.00 | 0.00 | 55 | 1014.9 |
| 20260905174334 | 94 | 144 | 1.0 | 2.0 | 0.00 | 0.00 | 0.00 | 55 | 1014.8 |
| 20260905173830 | 93 | 24 | 2.0 | 8.0 | 0.00 | 0.00 | 0.00 | 57 | 1014.9 |
| 20260905173326 | 94 | 354 | 5.0 | 8.0 | 0.00 | 0.00 | 0.00 | 55 | 1015.2 |
| 20260905172826 | 95 | 60 | 1.0 | 2.0 | 0.00 | 0.00 | 0.00 | 57 | 1015.5 |
| 20260905172324 | 94 | 144 | 1.0 | 1.0 | 0.00 | 0.00 | 0.00 | 61 | 1015.3 |
| 20260905171820 | 93 | 137 | 0.0 | 2.0 | 0.00 | 0.00 | 0.00 | 59 | 1015.5 |
| 20260905171317 | 95 | 116 | 1.0 | 6.0 | 0.00 | 0.00 | 0.00 | 57 | 1015.3 |
| 20260905170807 | 95 | 219 | 1.0 | 2.0 | 0.00 | 0.00 | 0.00 | 57 | 1015.3 |
| 20260905170303 | 95 | 82 | 1.0 | 7.0 | 0.00 | 0.00 | 0.00 | 56 | 1015.6 |
| 20260905165801 | 94 | 287 | 3.0 | 3.0 | 0.00 | 0.00 | 0.00 | 58 | 1015.5 |
| 20260905165257 | 95 | 92 | 2.0 | 4.0 | 0.00 | 0.00 | 0.00 | 60 | 1015.7 |
| 20260905164752 | 95 | 158 | 1.0 | 2.0 | 0.00 | 0.00 | 0.00 | 59 | 1015.9 |
| 20260905164252 | 95 | 218 | 0.0 | 1.0 | 0.00 | 0.00 | 0.00 | 58 | 1016.0 |
| 20260905163747 | 95 | 92 | 1.0 | 2.0 | 0.00 | 0.00 | 0.00 | 60 | 1015.9 |
| 20260905163244 | 94 | 114 | 0.0 | 2.0 | 0.00 | 0.00 | 0.00 | 60 | 1016.0 |
| 20260905162739 | 93 | 140 | 0.0 | 1.0 | 0.00 | 0.00 | 0.00 | 63 | 1016.3 |
| 20260905162239 | 93 | 145 | 0.0 | 3.0 | 0.00 | 0.00 | 0.00 | 63 | 1016.2 |
| 20260905161734 | 93 | 254 | 2.0 | 4.0 | 0.00 | 0.00 | 0.00 | 61 | 1016.1 |
| 20260905161232 | 93 | 185 | 2.0 | 4.0 | 0.00 | 0.00 | 0.00 | 62 | 1016.2 |
| 20260905160731 | 93 | 100 | 1.0 | 2.0 | 0.00 | 0.00 | 0.00 | 60 | 1016.1 |
| 20260905160225 | 92 | 86 | 0.0 | 2.0 | 0.00 | 0.00 | 0.00 | 63 | 1016.2 |
| 20260905155720 | 91 | 321 | 4.0 | 6.0 | 0.00 | 0.00 | 0.00 | 67 | 1016.3 |
| 20260905155219 | 90 | 294 | 2.0 | 4.0 | 0.00 | 0.00 | 0.00 | 66 | 1016.3 |
| 20260905154713 | 90 | 239 | 2.0 | 2.0 | 0.00 | 0.00 | 0.00 | 69 | 1016.4 |
| 20260905154209 | 90 | 187 | 1.0 | 3.0 | 0.00 | 0.00 | 0.00 | 70 | 1016.4 |
| 20260905153705 | 89 | 272 | 3.0 | 4.0 | 0.00 | 0.00 | 0.00 | 69 | 1016.4 |
| 20260905153201 | 89 | 204 | 2.0 | 4.0 | 0.00 | 0.00 | 0.00 | 69 | 1016.3 |
| 20260905152655 | 89 | 243 | 2.0 | 3.0 | 0.00 | 0.00 | 0.00 | 68 | 1016.5 |
| 20260905152150 | 88 | 256 | 3.0 | 4.0 | 0.00 | 0.00 | 0.00 | 71 | 1016.2 |
| 20260905151644 | 88 | 237 | 2.0 | 4.0 | 0.00 | 0.00 | 0.00 | 71 | 1016.1 |
| 20260905151141 | 87 | 157 | 0.0 | 2.0 | 0.00 | 0.00 | 0.00 | 70 | 1016.1 |
| 20260905150635 | 87 | 246 | 3.0 | 4.0 | 0.00 | 0.00 | 0.00 | 71 | 1016.2 |
| 20260905150133 | 87 | 240 | 2.0 | 6.0 | 0.00 | 0.00 | 0.00 | 75 | 1016.2 |
| 20260905145631 | 87 | 234 | 1.0 | 4.0 | 0.00 | 0.00 | 0.00 | 72 | 1016.3 |
| 20260905145131 | 87 | 277 | 4.0 | 6.0 | 0.00 | 0.00 | 0.00 | 72 | 1016.3 |
| 20260905144626 | 86 | 205 | 3.0 | 4.0 | 0.00 | 0.00 | 0.00 | 73 | 1016.4 |
| 20260905144120 | 86 | 161 | 1.0 | 3.0 | 0.00 | 0.00 | 0.00 | 72 | 1016.4 |
| 20260905143620 | 86 | 232 | 2.0 | 3.0 | 0.00 | 0.00 | 0.00 | 75 | 1016.4 |
| 20260905143114 | 86 | 249 | 3.0 | 6.0 | 0.00 | 0.00 | 0.00 | 74 | 1016.3 |
| 20260905142614 | 86 | 227 | 1.0 | 4.0 | 0.00 | 0.00 | 0.00 | 76 | 1016.4 |
| 20260905142113 | 86 | 149 | 1.0 | 3.0 | 0.00 | 0.00 | 0.00 | 75 | 1016.4 |
| 20260905141613 | 86 | 140 | 0.0 | 0.0 | 0.00 | 0.00 | 0.00 | 74 | 1016.3 |
| 20260905141109 | 85 | 141 | 0.0 | 3.0 | 0.00 | 0.00 | 0.00 | 78 | 1016.3 |
| 20260905140605 | 86 | 141 | 2.0 | 3.0 | 0.00 | 0.00 | 0.00 | 77 | 1016.5 |
| 20260905140103 | 84 | 139 | 0.0 | 2.0 | 0.00 | 0.00 | 0.00 | 78 | 1016.4 |
| 20260905135559 | 85 | 139 | 0.0 | 0.0 | 0.00 | 0.00 | 0.00 | 77 | 1016.5 |
| 20260905135054 | 84 | 140 | 1.0 | 2.0 | 0.00 | 0.00 | 0.00 | 79 | 1016.6 |
| 20260905134549 | 84 | 137 | 0.0 | 0.0 | 0.00 | 0.00 | 0.00 | 79 | 1016.5 |
| 20260905134047 | 83 | 138 | 0.0 | 0.0 | 0.00 | 0.00 | 0.00 | 80 | 1016.5 |
| 20260905133543 | 86 | 136 | 0.0 | 1.0 | 0.00 | 0.00 | 0.00 | 75 | 1016.5 |
| 20260905133042 | 85 | 134 | 0.0 | 0.0 | 0.00 | 0.00 | 0.00 | 77 | 1016.4 |
| 20260905132542 | 84 | 134 | 0.0 | 0.0 | 0.00 | 0.00 | 0.00 | 79 | 1016.7 |
| 20260905132037 | 83 | 134 | 0.0 | 1.0 | 0.00 | 0.00 | 0.00 | 79 | 1016.6 |
| 20260905131532 | 84 | 134 | 0.0 | 1.0 | 0.00 | 0.00 | 0.00 | 80 | 1016.6 |
| 20260905131028 | 83 | 134 | 0.0 | 0.0 | 0.00 | 0.00 | 0.00 | 83 | 1016.6 |
| 20260905130526 | 81 | 132 | 0.0 | 0.0 | 0.00 | 0.00 | 0.00 | 84 | 1016.7 |
| 20260905130022 | 82 | 135 | 0.0 | 0.0 | 0.00 | 0.00 | 0.00 | 85 | 1016.6 |
| 20260905125521 | 80 | 132 | 0.0 | 0.0 | 0.00 | 0.00 | 0.00 | 86 | 1016.6 |
| 20260905125017 | 78 | 135 | 0.0 | 0.0 | 0.00 | 0.00 | 0.00 | 89 | 1016.9 |
| 20260905124513 | 76 | 134 | 1.0 | 1.0 | 0.00 | 0.00 | 0.00 | 98 | 1016.6 |
| 20260905124010 | 75 | 133 | 0.0 | 1.0 | 0.00 | 0.00 | 0.00 | 99 | 1016.6 |
| 20260905123505 | 74 | 132 | 0.0 | 1.0 | 0.00 | 0.00 | 0.00 | 99 | 1016.5 |
| 20260905123001 | 74 | 133 | 0.0 | 1.0 | 0.00 | 0.00 | 0.00 | 99 | 1016.5 |
| 20260905122500 | 74 | 135 | 0.0 | 0.0 | 0.00 | 0.00 | 0.00 | 99 | 1016.4 |
| 20260905121955 | 73 | 134 | 0.0 | 0.0 | 0.00 | 0.00 | 0.00 | 99 | 1016.4 |
| 20260905121451 | 73 | 131 | 0.0 | 0.0 | 0.00 | 0.00 | 0.00 | 99 | 1016.4 |
| 20260905120950 | 72 | 135 | 0.0 | 0.0 | 0.00 | 0.00 | 0.00 | 99 | 1016.4 |
| 20260905120439 | 72 | 135 | 0.0 | 0.0 | 0.00 | 0.00 | 0.00 | 99 | 1016.4 |
| 20260905115934 | 71 | 135 | 0.0 | 0.0 | 0.00 | 0.00 | 0.00 | 99 | 1016.3 |
| 20260905115433 | 71 | 135 | 0.0 | 0.0 | 0.00 | 0.00 | 0.00 | 99 | 1016.3 |
| 20260905114928 | 71 | 135 | 0.0 | 0.0 | 0.00 | 0.00 | 0.00 | 99 | 1016.2 |
| 20260905114422 | 70 | 135 | 0.0 | 0.0 | 0.00 | 0.00 | 0.00 | 99 | 1016.1 |
| 20260905113921 | 70 | 132 | 0.0 | 0.0 | 0.00 | 0.00 | 0.00 | 99 | 1016.3 |
| 20260905113416 | 71 | 130 | 0.0 | 0.0 | 0.00 | 0.00 | 0.00 | 99 | 1016.1 |
| 20260905112912 | 71 | 137 | 0.0 | 0.0 | 0.00 | 0.00 | 0.00 | 99 | 1016.2 |
| 20260905112407 | 71 | 136 | 0.0 | 0.0 | 0.00 | 0.00 | 0.00 | 99 | 1016.1 |
| 20260905111902 | 71 | 135 | 0.0 | 0.0 | 0.00 | 0.00 | 0.00 | 99 | 1016.0 |
| 20260905111402 | 71 | 132 | 0.0 | 0.0 | 0.00 | 0.00 | 0.00 | 99 | 1015.9 |
| 20260905110856 | 70 | 129 | 0.0 | 0.0 | 0.00 | 0.00 | 0.00 | 99 | 1015.8 |
| 20260905110355 | 71 | 136 | 0.0 | 0.0 | 0.00 | 0.00 | 0.00 | 99 | 1015.8 |
| 20260905105851 | 71 | 137 | 0.0 | 0.0 | 0.00 | 0.00 | 0.00 | 99 | 1015.6 |
| 20260905105351 | 72 | 137 | 0.0 | 0.0 | 0.00 | 0.00 | 0.00 | 99 | 1015.7 |
| 20260905104850 | 72 | 137 | 0.0 | 0.0 | 0.00 | 0.00 | 0.00 | 99 | 1015.5 |
| 20260905104347 | 72 | 136 | 0.0 | 0.0 | 0.00 | 0.00 | 0.00 | 99 | 1015.6 |
| 20260905103846 | 72 | 136 | 0.0 | 0.0 | 0.00 | 0.00 | 0.00 | 99 | 1015.6 |
| 20260905103337 | 71 | 129 | 1.0 | 1.0 | 0.00 | 0.00 | 0.00 | 99 | 1015.2 |
| 20260905102832 | 72 | 127 | 0.0 | 0.0 | 0.00 | 0.00 | 0.00 | 99 | 1015.1 |
| 20260905102329 | 72 | 142 | 0.0 | 0.0 | 0.00 | 0.00 | 0.00 | 99 | 1015.0 |
| 20260905101828 | 72 | 141 | 0.0 | 0.0 | 0.00 | 0.00 | 0.00 | 99 | 1015.0 |
| 20260905101326 | 72 | 142 | 0.0 | 0.0 | 0.00 | 0.00 | 0.00 | 99 | 1015.1 |
| 20260905100821 | 72 | 141 | 0.0 | 0.0 | 0.00 | 0.00 | 0.00 | 99 | 1015.1 |
| 20260905100317 | 72 | 141 | 0.0 | 0.0 | 0.00 | 0.00 | 0.00 | 99 | 1015.0 |
| 20260905095816 | 72 | 140 | 0.0 | 0.0 | 0.00 | 0.00 | 0.00 | 99 | 1014.9 |
| 20260905095310 | 72 | 140 | 0.0 | 0.0 | 0.00 | 0.00 | 0.00 | 99 | 1014.9 |
| 20260905094805 | 72 | 137 | 0.0 | 0.0 | 0.00 | 0.00 | 0.00 | 99 | 1015.0 |
| 20260905094301 | 73 | 137 | 0.0 | 0.0 | 0.00 | 0.00 | 0.00 | 99 | 1015.0 |
| 20260905093800 | 73 | 131 | 0.0 | 0.0 | 0.00 | 0.00 | 0.00 | 99 | 1015.1 |
| 20260905093255 | 73 | 142 | 0.0 | 0.0 | 0.00 | 0.00 | 0.00 | 99 | 1015.0 |
| 20260905092751 | 72 | 142 | 0.0 | 0.0 | 0.00 | 0.00 | 0.00 | 99 | 1015.2 |
| 20260905092246 | 72 | 140 | 0.0 | 0.0 | 0.00 | 0.00 | 0.00 | 99 | 1015.1 |
| 20260905091741 | 73 | 141 | 0.0 | 0.0 | 0.00 | 0.00 | 0.00 | 99 | 1015.0 |
| 20260905091235 | 73 | 141 | 0.0 | 0.0 | 0.00 | 0.00 | 0.00 | 99 | 1015.0 |
| 20260905090734 | 73 | 141 | 0.0 | 0.0 | 0.00 | 0.00 | 0.00 | 99 | 1015.2 |
| 20260905090231 | 73 | 141 | 0.0 | 0.0 | 0.00 | 0.00 | 0.00 | 99 | 1015.1 |
| 20260905085729 | 73 | 141 | 0.0 | 0.0 | 0.00 | 0.00 | 0.00 | 99 | 1014.9 |
| 20260905085224 | 73 | 141 | 0.0 | 0.0 | 0.00 | 0.00 | 0.00 | 99 | 1015.2 |
| 20260905084718 | 72 | 140 | 0.0 | 0.0 | 0.00 | 0.00 | 0.00 | 99 | 1015.3 |
| 20260905084218 | 72 | 140 | 0.0 | 0.0 | 0.00 | 0.00 | 0.00 | 99 | 1015.6 |
| 20260905083713 | 72 | 140 | 0.0 | 0.0 | 0.00 | 0.00 | 0.00 | 99 | 1015.5 |
| 20260905083209 | 73 | 139 | 0.0 | 0.0 | 0.00 | 0.00 | 0.00 | 99 | 1015.6 |
| 20260905082705 | 73 | 138 | 0.0 | 0.0 | 0.00 | 0.00 | 0.00 | 99 | 1015.6 |
| 20260905082201 | 73 | 138 | 0.0 | 0.0 | 0.00 | 0.00 | 0.00 | 99 | 1015.6 |
| 20260905081700 | 73 | 137 | 0.0 | 0.0 | 0.00 | 0.00 | 0.00 | 99 | 1015.7 |
| 20260905081155 | 73 | 137 | 0.0 | 0.0 | 0.00 | 0.00 | 0.00 | 99 | 1015.7 |
| 20260905080650 | 73 | 137 | 0.0 | 0.0 | 0.00 | 0.00 | 0.00 | 99 | 1015.7 |
| 20260905080149 | 73 | 139 | 0.0 | 0.0 | 0.00 | 0.00 | 0.00 | 99 | 1015.8 |
| 20260905075649 | 73 | 139 | 0.0 | 0.0 | 0.00 | 0.00 | 0.00 | 99 | 1015.8 |
| 20260905075148 | 73 | 140 | 0.0 | 0.0 | 0.00 | 0.00 | 0.00 | 99 | 1015.9 |
| 20260905074647 | 73 | 140 | 0.0 | 0.0 | 0.00 | 0.00 | 0.00 | 99 | 1015.8 |
| 20260905074143 | 73 | 140 | 0.0 | 0.0 | 0.00 | 0.00 | 0.00 | 99 | 1015.9 |
| 20260905073639 | 73 | 140 | 0.0 | 0.0 | 0.00 | 0.00 | 0.00 | 99 | 1015.7 |
| 20260905073134 | 73 | 140 | 0.0 | 0.0 | 0.00 | 0.00 | 0.00 | 99 | 1016.0 |
| 20260905072633 | 73 | 140 | 0.0 | 0.0 | 0.00 | 0.00 | 0.00 | 99 | 1016.0 |
| 20260905072129 | 73 | 138 | 0.0 | 0.0 | 0.00 | 0.00 | 0.00 | 99 | 1015.9 |
| 20260905071625 | 73 | 134 | 0.0 | 0.0 | 0.00 | 0.00 | 0.00 | 99 | 1015.8 |
| 20260905071120 | 74 | 134 | 0.0 | 0.0 | 0.00 | 0.00 | 0.00 | 99 | 1016.0 |
| 20260905070616 | 73 | 134 | 0.0 | 0.0 | 0.00 | 0.00 | 0.00 | 99 | 1016.2 |
| 20260905070112 | 73 | 134 | 0.0 | 0.0 | 0.00 | 0.00 | 0.00 | 99 | 1016.1 |
| 20260905065609 | 73 | 134 | 0.0 | 0.0 | 0.00 | 0.00 | 0.00 | 99 | 1016.3 |
| 20260905065104 | 73 | 134 | 0.0 | 0.0 | 0.00 | 0.00 | 0.00 | 99 | 1016.1 |
| 20260905064559 | 73 | 134 | 0.0 | 0.0 | 0.00 | 0.00 | 0.00 | 99 | 1016.2 |
| 20260905064054 | 73 | 133 | 0.0 | 0.0 | 0.00 | 0.00 | 0.00 | 99 | 1016.3 |
| 20260905063553 | 73 | 129 | 0.0 | 0.0 | 0.00 | 0.00 | 0.00 | 99 | 1016.5 |
| 20260905063049 | 73 | 135 | 0.0 | 0.0 | 0.00 | 0.00 | 0.00 | 99 | 1016.5 |
| 20260905062544 | 74 | 134 | 0.0 | 0.0 | 0.00 | 0.00 | 0.00 | 99 | 1016.6 |
| 20260905062039 | 74 | 134 | 0.0 | 0.0 | 0.00 | 0.00 | 0.00 | 99 | 1016.6 |
| 20260905061534 | 74 | 134 | 0.0 | 0.0 | 0.00 | 0.00 | 0.00 | 99 | 1016.7 |
| 20260905061033 | 74 | 132 | 0.0 | 0.0 | 0.00 | 0.00 | 0.00 | 99 | 1016.7 |
| 20260905060529 | 74 | 129 | 0.0 | 0.0 | 0.00 | 0.00 | 0.00 | 99 | 1016.9 |
| 20260905060025 | 74 | 136 | 0.0 | 0.0 | 0.00 | 0.00 | 0.00 | 99 | 1016.8 |
| 20260905055524 | 74 | 134 | 0.0 | 0.0 | 0.00 | 0.00 | 0.00 | 99 | 1016.8 |
| 20260905055019 | 74 | 135 | 0.0 | 0.0 | 0.00 | 0.00 | 0.00 | 99 | 1016.9 |
| 20260905054514 | 75 | 139 | 0.0 | 0.0 | 0.00 | 0.00 | 0.00 | 99 | 1016.9 |
| 20260905054010 | 75 | 140 | 0.0 | 0.0 | 0.00 | 0.00 | 0.00 | 99 | 1016.7 |
| 20260905053503 | 74 | 135 | 0.0 | 0.0 | 0.00 | 0.00 | 0.00 | 99 | 1016.9 |
| 20260905053000 | 75 | 136 | 0.0 | 0.0 | 0.00 | 0.00 | 0.00 | 99 | 1016.9 |
| 20260905052459 | 74 | 132 | 0.0 | 0.0 | 0.00 | 0.00 | 0.00 | 98 | 1016.9 |
| 20260905051958 | 74 | 129 | 1.0 | 1.0 | 0.00 | 0.00 | 0.00 | 98 | 1016.8 |
| 20260905051454 | 74 | 133 | 0.0 | 0.0 | 0.00 | 0.00 | 0.00 | 98 | 1016.9 |
| 20260905050951 | 75 | 136 | 0.0 | 0.0 | 0.00 | 0.00 | 0.00 | 98 | 1016.8 |
| 20260905050447 | 75 | 142 | 0.0 | 2.0 | 0.00 | 0.00 | 0.00 | 98 | 1016.7 |
| 20260905045943 | 75 | 136 | 0.0 | 0.0 | 0.00 | 0.00 | 0.00 | 98 | 1017.0 |
| 20260905045437 | 75 | 133 | 0.0 | 0.0 | 0.00 | 0.00 | 0.00 | 98 | 1017.0 |
| 20260905044932 | 75 | 133 | 0.0 | 0.0 | 0.00 | 0.00 | 0.00 | 98 | 1017.2 |
| 20260905044427 | 75 | 136 | 0.0 | 0.0 | 0.00 | 0.00 | 0.00 | 98 | 1016.9 |
| 20260905043926 | 75 | 135 | 0.0 | 0.0 | 0.00 | 0.00 | 0.00 | 98 | 1017.1 |
| 20260905043421 | 75 | 136 | 0.0 | 0.0 | 0.00 | 0.00 | 0.00 | 98 | 1017.0 |
| 20260905042921 | 75 | 136 | 0.0 | 0.0 | 0.00 | 0.00 | 0.00 | 98 | 1017.1 |
| 20260905042415 | 75 | 136 | 0.0 | 0.0 | 0.00 | 0.00 | 0.00 | 98 | 1017.2 |
| 20260905041910 | 75 | 136 | 0.0 | 0.0 | 0.00 | 0.00 | 0.00 | 98 | 1017.0 |
| 20260905041407 | 75 | 126 | 0.0 | 0.0 | 0.00 | 0.00 | 0.00 | 98 | 1017.0 |
| 20260905040901 | 75 | 134 | 0.0 | 0.0 | 0.00 | 0.00 | 0.00 | 98 | 1017.0 |
| 20260905040400 | 75 | 132 | 0.0 | 0.0 | 0.00 | 0.00 | 0.00 | 98 | 1017.0 |
| 20260905035859 | 75 | 133 | 0.0 | 0.0 | 0.00 | 0.00 | 0.00 | 97 | 1016.8 |
| 20260905035355 | 75 | 135 | 0.0 | 0.0 | 0.00 | 0.00 | 0.00 | 97 | 1016.7 |
| 20260905034852 | 76 | 132 | 0.0 | 0.0 | 0.00 | 0.00 | 0.00 | 97 | 1016.5 |
| 20260905034347 | 76 | 118 | 0.0 | 0.0 | 0.00 | 0.00 | 0.00 | 97 | 1016.7 |
| 20260905033845 | 76 | 110 | 0.0 | 0.0 | 0.00 | 0.00 | 0.00 | 97 | 1016.8 |
| 20260905033341 | 76 | 161 | 0.0 | 0.0 | 0.00 | 0.00 | 0.00 | 96 | 1016.8 |
| 20260905032840 | 77 | 162 | 0.0 | 0.0 | 0.00 | 0.00 | 0.00 | 96 | 1016.7 |
| 20260905032336 | 77 | 161 | 0.0 | 0.0 | 0.00 | 0.00 | 0.00 | 96 | 1016.8 |
| 20260905031831 | 77 | 161 | 0.0 | 0.0 | 0.00 | 0.00 | 0.00 | 96 | 1016.8 |
| 20260905031327 | 77 | 173 | 0.0 | 0.0 | 0.00 | 0.00 | 0.00 | 95 | 1016.8 |
| 20260905030822 | 77 | 130 | 0.0 | 0.0 | 0.00 | 0.00 | 0.00 | 96 | 1016.8 |
| 20260905030318 | 77 | 108 | 0.0 | 0.0 | 0.00 | 0.00 | 0.00 | 95 | 1016.8 |
| 20260905025817 | 78 | 121 | 0.0 | 0.0 | 0.00 | 0.00 | 0.00 | 94 | 1017.0 |
| 20260905025312 | 78 | 156 | 0.0 | 0.0 | 0.00 | 0.00 | 0.00 | 93 | 1016.9 |
| 20260905024808 | 78 | 143 | 0.0 | 0.0 | 0.00 | 0.00 | 0.00 | 93 | 1016.9 |
| 20260905024303 | 78 | 137 | 0.0 | 0.0 | 0.00 | 0.00 | 0.00 | 94 | 1017.1 |